Location: ??????
(55.6500°N, 37.8000°E)
Time: 12:17:01
(UTC+00:00)

Cosmos 773 Rocket - Pass Details

Date: 14 April 2024
Orbit: 744 x 774 km, 74.1° (Epoch: 19 May)

Event Time Altitude Azimuth Distance (km) Brightness Sun altitude
Exits shadow 00:20:35 24° 241° (WSW) 1,562 5.0 -15.7°
Maximum altitude 00:23:31 50° 306° (NW) 984 4.5 -15.5°
Drops below altitude 10° 00:28:40 10° 22° (NNE) 2,324 7.6 -14.9°
Sets 00:31:07 0° 28° (NNE) 3,250 8.7 -14.7°
